Location: *
(50.9167°S, 179.4000°W)
Time: 21:19:44
(UTC+00:00)

ATLAS 3B R/B - Pass Details

Date: 03 March 2024
Orbit: 949 x 1245 km, 63.8° (Epoch: 14 April)

Event Time Altitude Azimuth Distance (km) Brightness Sun altitude
Rises 12:16:02 0° 233° (SW) 3,749 6.0 -32.5°
Reaches altitude 10° 12:19:00 10° 222° (SW) 2,765 5.3 -32.5°
Maximum altitude 12:24:42 32° 160° (SSE) 1,599 4.0 -32.5°
Drops below altitude 10° 12:30:16 10° 97° (E) 2,697 4.9 -32.4°
Sets 12:33:07 0° 86° (E) 3,644 5.5 -32.3°
